DW9174 Weather Reports


time (UTC)temp
F
wind
direction
speed
knots
gust
knots
rain 1hr
in
rain 24hr
in
rain mn
in
humidity
%
barometer
mb
20260504190048 74 168 0.9 7.0 0.00 0.00 0.00 43 1010.3
20260504185038 73 126 1.7 7.0 0.00 0.00 0.00 45 1010.5
20260504184040 74 130 0.9 7.0 0.00 0.00 0.00 45 1010.8
20260504183053 73 127 0.9 7.8 0.00 0.00 0.00 45 1010.9
20260504182048 73 109 0.9 7.8 0.00 0.00 0.00 42 1011.1
20260504181050 73 126 0.9 7.0 0.00 0.00 0.00 47 1011.3
20260504180056 73 134 0.9 8.7 0.00 0.00 0.00 46 1011.5
20260504175115 73 132 0.9 8.7 0.00 0.00 0.00 45 1011.7
20260504174120 72 113 0.0 8.7 0.00 0.00 0.00 45 1011.7
20260504173051 71 230 1.7 8.7 0.00 0.00 0.00 44 1011.9
20260504172109 72 105 0.9 7.8 0.00 0.00 0.00 45 1012.0
20260504171111 72 132 0.9 6.1 0.00 0.00 0.00 44 1012.1
20260504170121 72 138 0.9 6.1 0.00 0.00 0.00 45 1012.3
20260504150748 68 123 0.0 5.2 0.00 0.00 0.00 49 1013.4
20260504120126 48 170 0.0 0.9 0.00 0.00 0.00 82 1014.7
20260504081749 43 265 0.0 0.0 0.00 0.00 0.00 89 1015.5
20260504080729 43 225 0.0 0.0 0.00 0.00 0.00 89 1015.3
20260504070332 41 225 0.0 0.0 0.00 0.00 0.00 88 1015.4
20260504044854 42 225 0.0 0.0 0.00 0.00 0.00 76 1016.0
20260504043900 43 144 0.0 0.0 0.00 0.00 0.00 73 1016.0
20260504042920 42 144 0.0 0.0 0.00 0.00 0.00 75 1015.9
20260504041923 43 144 0.0 0.0 0.00 0.00 0.00 76 1015.8
20260504040850 43 125 0.0 0.0 0.00 0.00 0.00 74 1015.8
20260504035915 43 116 0.0 0.0 0.00 0.00 0.00 73 1015.8
20260504034930 43 114 0.0 0.9 0.00 0.00 0.00 74 1015.6
20260504033930 43 162 0.0 0.0 0.00 0.00 0.00 74 1015.6
20260504032859 43 162 0.0 0.9 0.00 0.00 0.00 76 1015.6
20260504031923 43 232 0.0 0.0 0.00 0.00 0.00 77 1015.5
20260504030944 43 262 0.0 0.0 0.00 0.00 0.00 76 1015.5
20260504025943 43 262 0.0 0.0 0.00 0.00 0.00 75 1015.5
20260504024940 44 262 0.0 0.0 0.00 0.00 0.00 74 1015.3
20260504024004 45 265 0.0 0.0 0.00 0.00 0.00 72 1015.3
20260504021856 46 277 0.0 0.9 0.00 0.00 0.00 68 1015.1
20260504020838 47 265 0.0 0.0 0.00 0.00 0.00 66 1015.2
20260504015827 48 265 0.0 0.0 0.00 0.00 0.00 62 1015.0
20260504014818 49 259 0.0 0.0 0.00 0.00 0.00 61 1014.9
20260504012727 48 256 0.0 3.5 0.00 0.00 0.00 61 1014.9
20260504011703 49 273 0.0 0.9 0.00 0.00 0.00 62 1014.8
20260504010714 49 265 0.0 0.0 0.00 0.00 0.00 61 1014.7
20260504005727 48 265 0.0 0.9 0.00 0.00 0.00 62 1014.8
20260504004713 49 281 0.0 0.9 0.00 0.00 0.00 60 1014.7
20260504002541 53 260 0.0 0.0 0.00 0.00 0.00 54 1014.5
20260504001522 55 286 0.0 0.0 0.00 0.00 0.00 49 1014.5
20260504000533 57 296 0.0 0.0 0.00 0.00 0.00 42 1014.5
20260503235521 57 221 0.0 1.7 0.00 0.00 0.00 41 1014.4
20260503233445 60 246 0.0 2.6 0.00 0.00 0.00 37 1014.2
20260503232424 61 281 1.7 6.1 0.00 0.00 0.00 34 1014.2
20260503231359 61 264 0.9 6.1 0.00 0.00 0.00 33 1014.1
20260503230353 61 268 2.6 4.3 0.00 0.00 0.00 34 1014.1
20260503225328 62 275 1.7 5.2 0.00 0.00 0.00 34 1014.0
20260503224309 62 271 1.7 5.2 0.00 0.00 0.00 34 1014.0
20260503222219 62 312 1.7 8.7 0.00 0.00 0.00 33 1014.1
20260503221237 62 259 3.5 8.7 0.00 0.00 0.00 32 1014.2
20260503220234 63 324 0.9 7.8 0.00 0.00 0.00 34 1014.2
20260503215225 62 282 1.7 7.8 0.00 0.00 0.00 34 1014.1
20260503214218 62 320 3.5 7.8 0.00 0.00 0.00 33 1014.1
20260503213218 62 300 2.6 7.8 0.00 0.00 0.00 33 1014.1
20260503212212 63 294 1.7 4.3 0.00 0.00 0.00 33 1014.3
20260503211202 63 302 1.7 6.1 0.00 0.00 0.00 36 1014.3
20260503210159 62 240 3.5 9.6 0.00 0.00 0.00 36 1014.2
20260503205202 63 315 1.7 7.0 0.00 0.00 0.00 36 1014.3
20260503204149 63 290 0.9 3.5 0.00 0.00 0.00 34 1014.3
20260503203138 62 320 3.5 9.6 0.00 0.00 0.00 33 1014.4
20260503202125 62 286 1.7 7.0 0.00 0.00 0.00 35 1014.4
20260503201147 61 315 2.6 7.0 0.00 0.00 0.00 35 1014.5
20260503200202 61 264 2.6 7.0 0.00 0.00 0.00 34 1014.7
20260503195156 61 234 2.6 6.1 0.00 0.00 0.00 36 1015.0
20260503193026 61 350 3.5 12.2 0.00 0.00 0.00 37 1015.3